Location: Cosy Dell
(34.2789°N, 117.4537°W)
Time: 21:13:07
(UTC+00:00)

NOSS 3-4 (C) - Pass Details

Date: 14 July 2020
Orbit: 891 x 1321 km, 63.4° (Epoch: 12 July)

Event Time Altitude Azimuth Distance (km) Brightness Sun altitude
Rises 04:50:17 0° 333° (NNW) 3,882 8.0 -18.8°
Reaches altitude 10° 04:52:55 10° 338° (NNW) 2,984 7.0 -19.2°
Maximum altitude 04:59:58 55° 56° (NE) 1,413 4.2 -20.2°
Enters shadow 05:03:38 31° 118° (ESE) 2,010 4.6 -20.7°
